Hourly Weather Valencia

Today, 8 July, Wednesday

Time Temperature Precipitation Wind Pressure Humidity
00:00 +20°C° 0 mm 0 mps 717 mmHg 91%
01:00 +20°C° 0 mm 0 mps 717 mmHg 91%
02:00 +22°C° 0 mm 1 mps 717 mmHg 92%
03:00 +22°C° 0 mm 1 mps 717 mmHg 92%
04:00 +22°C° 0 mm 1 mps 716 mmHg 93%
05:00 +23°C° 0 mm 1 mps 717 mmHg 91%
06:00 +23°C° 0 mm 1 mps 717 mmHg 89%
07:00 +24°C° 0 mm 1 mps 718 mmHg 88%
08:00 +26°C° 0 mm 1 mps 718 mmHg 80%
09:00 +28°C° 0 mm 2 mps 718 mmHg 73%
10:00 +29°C° 0 mm 2 mps 718 mmHg 65%
11:00 +30°C° 0.1 mm 2 mps 718 mmHg 64%
12:00 +31°C° 0.1 mm 2 mps 717 mmHg 64%
13:00 +31°C° 0.1 mm 2 mps 717 mmHg 63%
14:00 +31°C° 0.4 mm 2 mps 716 mmHg 67%
15:00 +30°C° 0.4 mm 2 mps 716 mmHg 71%
16:00 +30°C° 0.4 mm 1 mps 715 mmHg 75%
17:00 +28°C° 0.4 mm 1 mps 715 mmHg 81%
18:00 +26°C° 0.4 mm 1 mps 716 mmHg 86%
19:00 +25°C° 0.4 mm 1 mps 716 mmHg 92%
20:00 +23°C° 0.2 mm 0 mps 717 mmHg 93%
21:00 +22°C° 0.2 mm 0 mps 717 mmHg 93%
22:00 +22°C° 0.2 mm 0 mps 717 mmHg 94%
23:00 +22°C° 0.1 mm 0 mps 717 mmHg 94%

Tomorrow, 9 July, Thursday

Time Temperature Precipitation Wind Pressure Humidity
00:00 +21°C° 0.1 mm 0 mps 717 mmHg 94%
01:00 +21°C° 0.1 mm 0 mps 717 mmHg 94%
02:00 +21°C° 0 mm 0 mps 717 mmHg 94%
03:00 +21°C° 0 mm 0 mps 717 mmHg 94%
04:00 +21°C° 0 mm 0 mps 717 mmHg 94%
05:00 +21°C° 0 mm 0 mps 717 mmHg 93%
06:00 +22°C° 0 mm 0 mps 718 mmHg 91%
07:00 +23°C° 0 mm 0 mps 718 mmHg 90%
08:00 +25°C° 0 mm 0 mps 719 mmHg 81%
09:00 +29°C° 0 mm 1 mps 719 mmHg 71%
10:00 +31°C° 0 mm 1 mps 719 mmHg 62%
11:00 +31°C° 0 mm 1 mps 719 mmHg 60%
12:00 +32°C° 0 mm 1 mps 718 mmHg 57%
13:00 +32°C° 0 mm 2 mps 718 mmHg 55%
14:00 +31°C° 0.2 mm 2 mps 717 mmHg 61%
15:00 +30°C° 0.2 mm 2 mps 717 mmHg 67%
16:00 +29°C° 0.2 mm 2 mps 716 mmHg 73%
17:00 +27°C° 0.1 mm 2 mps 716 mmHg 80%
18:00 +26°C° 0.1 mm 2 mps 717 mmHg 88%
19:00 +24°C° 0.1 mm 1 mps 717 mmHg 95%
20:00 +23°C° 0 mm 1 mps 717 mmHg 95%
21:00 +23°C° 0 mm 1 mps 718 mmHg 95%
22:00 +23°C° 0 mm 1 mps 718 mmHg 96%
23:00 +21°C° 0 mm 0 mps 718 mmHg 96%

Day after tomorrow, 10 July, Friday

Time Temperature Precipitation Wind Pressure Humidity
00:00 +20°C° 0 mm 0 mps 717 mmHg 96%
01:00 +20°C° 0 mm 0 mps 717 mmHg 95%
02:00 +20°C° 0 mm 0 mps 717 mmHg 95%
03:00 +20°C° 0 mm 0 mps 717 mmHg 95%
04:00 +20°C° 0 mm 0 mps 717 mmHg 95%
05:00 +21°C° 0 mm 0 mps 718 mmHg 92%
06:00 +22°C° 0 mm 0 mps 718 mmHg 89%
07:00 +23°C° 0 mm 0 mps 719 mmHg 86%
08:00 +27°C° 0 mm 1 mps 719 mmHg 78%
09:00 +29°C° 0 mm 1 mps 719 mmHg 71%
10:00 +30°C° 0 mm 1 mps 720 mmHg 63%
11:00 +30°C° 0.4 mm 1 mps 719 mmHg 63%
12:00 +31°C° 0.4 mm 1 mps 718 mmHg 64%
13:00 +31°C° 0.4 mm 2 mps 718 mmHg 64%
14:00 +30°C° 0.7 mm 2 mps 717 mmHg 70%
15:00 +29°C° 0.7 mm 2 mps 717 mmHg 77%
16:00 +28°C° 0.7 mm 1 mps 716 mmHg 83%
17:00 +26°C° 0.1 mm 1 mps 716 mmHg 87%
18:00 +25°C° 0.1 mm 1 mps 717 mmHg 91%
19:00 +24°C° 0.1 mm 1 mps 717 mmHg 95%
20:00 +24°C° 0 mm 1 mps 717 mmHg 95%
21:00 +23°C° 0 mm 1 mps 718 mmHg 96%
22:00 +21°C° 0 mm 0 mps 718 mmHg 96%
23:00 +21°C° 0 mm 0 mps 718 mmHg 95%

11 July, Saturday

Time Temperature Precipitation Wind Pressure Humidity
00:00 +21°C° 0 mm 0 mps 718 mmHg 95%
01:00 +20°C° 0 mm 0 mps 717 mmHg 94%
02:00 +20°C° 0 mm 0 mps 717 mmHg 94%
03:00 +20°C° 0 mm 0 mps 717 mmHg 94%
04:00 +20°C° 0 mm 0 mps 717 mmHg 94%
05:00 +21°C° 0 mm 0 mps 717 mmHg 92%
06:00 +22°C° 0 mm 0 mps 718 mmHg 91%
07:00 +23°C° 0 mm 0 mps 718 mmHg 89%
08:00 +26°C° 0.1 mm 1 mps 718 mmHg 82%
09:00 +28°C° 0.1 mm 1 mps 719 mmHg 76%
10:00 +29°C° 0.1 mm 1 mps 719 mmHg 69%
11:00 +29°C° 1 mm 1 mps 718 mmHg 71%
12:00 +29°C° 1 mm 1 mps 718 mmHg 74%
13:00 +29°C° 1 mm 1 mps 717 mmHg 76%
14:00 +29°C° 1.6 mm 1 mps 716 mmHg 80%
15:00 +28°C° 1.6 mm 1 mps 716 mmHg 84%
16:00 +27°C° 1.6 mm 1 mps 715 mmHg 88%
17:00 +26°C° 0.8 mm 1 mps 716 mmHg 90%
18:00 +25°C° 0.8 mm 1 mps 716 mmHg 93%
19:00 +24°C° 0.8 mm 1 mps 716 mmHg 95%
20:00 +24°C° 0.4 mm 1 mps 717 mmHg 96%
21:00 +23°C° 0.4 mm 1 mps 717 mmHg 96%
22:00 +21°C° 0.4 mm 0 mps 718 mmHg 96%
23:00 +21°C° 0.1 mm 0 mps 717 mmHg 95%

12 July, Sunday

Time Temperature Precipitation Wind Pressure Humidity
00:00 +21°C° 0.1 mm 0 mps 717 mmHg 95%
01:00 +21°C° 0.1 mm 0 mps 716 mmHg 94%
02:00 +23°C° 0.3 mm 1 mps 716 mmHg 95%
03:00 +23°C° 0.3 mm 1 mps 716 mmHg 95%
04:00 +23°C° 0.3 mm 1 mps 716 mmHg 96%
05:00 +23°C° 1 mm 1 mps 717 mmHg 96%
06:00 +23°C° 1 mm 1 mps 717 mmHg 95%
07:00 +24°C° 1 mm 1 mps 718 mmHg 95%
08:00 +25°C° 0.6 mm 1 mps 718 mmHg 92%
09:00 +26°C° 0.6 mm 2 mps 718 mmHg 88%
10:00 +27°C° 0.6 mm 2 mps 719 mmHg 85%
11:00 +26°C° 1.2 mm 2 mps 718 mmHg 87%
12:00 +26°C° 1.2 mm 2 mps 718 mmHg 90%
13:00 +25°C° 1.2 mm 3 mps 718 mmHg 93%
14:00 +25°C° 0.1 mm 2 mps 717 mmHg 92%
15:00 +25°C° 0.1 mm 2 mps 717 mmHg 91%
16:00 +25°C° 0.1 mm 1 mps 716 mmHg 90%
17:00 +24°C° 0 mm 1 mps 716 mmHg 90%
18:00 +23°C° 0 mm 1 mps 717 mmHg 91%
19:00 +23°C° 0 mm 1 mps 717 mmHg 92%
20:00 +21°C° 0 mm 0 mps 718 mmHg 91%
21:00 +21°C° 0 mm 0 mps 718 mmHg 90%
22:00 +21°C° 0 mm 0 mps 719 mmHg 89%
23:00 +21°C° 0 mm 0 mps 718 mmHg 90%

13 July, Monday

Time Temperature Precipitation Wind Pressure Humidity
00:00 +21°C° 0 mm 0 mps 718 mmHg 91%
01:00 +20°C° 0 mm 0 mps 718 mmHg 91%
02:00 +20°C° 0 mm 0 mps 718 mmHg 92%
03:00 +20°C° 0 mm 0 mps 718 mmHg 92%
04:00 +20°C° 0 mm 0 mps 718 mmHg 93%
05:00 +21°C° 0 mm 0 mps 718 mmHg 90%
06:00 +22°C° 0 mm 0 mps 719 mmHg 87%
07:00 +23°C° 0 mm 0 mps 719 mmHg 85%
08:00 +25°C° 0 mm 0 mps 719 mmHg 78%
09:00 +28°C° 0 mm 1 mps 720 mmHg 71%
10:00 +30°C° 0 mm 1 mps 720 mmHg 64%
11:00 +30°C° 0.3 mm 1 mps 719 mmHg 66%
12:00 +30°C° 0.3 mm 1 mps 719 mmHg 69%
13:00 +30°C° 0.3 mm 1 mps 718 mmHg 71%
14:00 +29°C° 0.7 mm 1 mps 718 mmHg 76%
15:00 +29°C° 0.7 mm 1 mps 718 mmHg 80%
16:00 +28°C° 0.7 mm 1 mps 717 mmHg 84%
17:00 +27°C° 0.1 mm 1 mps 717 mmHg 88%
18:00 +25°C° 0.1 mm 1 mps 718 mmHg 92%
19:00 +24°C° 0.1 mm 1 mps 718 mmHg 96%
20:00 +24°C° 0.3 mm 1 mps 718 mmHg 96%
21:00 +23°C° 0.3 mm 1 mps 719 mmHg 96%
22:00 +21°C° 0.3 mm 0 mps 719 mmHg 96%
23:00 +21°C° 0 mm 0 mps 719 mmHg 96%
Show more